Volver al catálogo

COSMOS 2251 DEB

ActivoLEO
NORAD 37960·DEBRIS·🇷🇺 Russia

Lanzado Jun 16, 1993 desde Plesetsk Cosmodrome

Loading…

Próximos Pases (próximas 24 horas)

TLE

ActualizadoSource: Space-Track

Época: Sep 14, 2026, 20:55 UTC

1 37960U 93036BPK 26257.87199368  .00000875  00000-0  39450-3 0  9993
2 37960  74.0587  62.5646 0246909  15.2015 345.6369 14.08702548812939

Sigue COSMOS 2251 DEB en tiempo real con AllMySat

Download on the App Store